| time (UTC) | temp F | wind direction | speed MPH | gust MPH | rain 1hr in | rain 24hr in | rain mn in | humidity % | barometer mb |
| 20260507020221 | 54 | 205 | 1.0 | 3.0 | 0.00 | 0.00 | 0.00 | 31 | 1016.4 |
| 20260507020046 | 54 | 205 | 2.0 | 3.0 | 0.00 | 0.00 | 0.00 | 31 | 1016.4 |
| 20260507015728 | 55 | 205 | 2.0 | 3.0 | 0.00 | 0.00 | 0.00 | 31 | 1016.4 |
| 20260507015240 | 55 | 205 | 2.0 | 3.0 | 0.00 | 0.00 | 0.00 | 30 | 1016.4 |
| 20260507014725 | 55 | 205 | 2.0 | 3.0 | 0.00 | 0.00 | 0.00 | 30 | 1016.4 |
| 20260507014546 | 55 | 274 | 2.0 | 3.0 | 0.00 | 0.00 | 0.00 | 30 | 1016.5 |
| 20260507014258 | 55 | 274 | 2.0 | 3.0 | 0.00 | 0.00 | 0.00 | 30 | 1016.4 |
| 20260507013722 | 56 | 274 | 2.0 | 3.0 | 0.00 | 0.00 | 0.00 | 30 | 1016.3 |
| 20260507013233 | 56 | 274 | 0.0 | 2.0 | 0.00 | 0.00 | 0.00 | 30 | 1016.3 |
| 20260507013017 | 56 | 274 | 0.0 | 2.0 | 0.00 | 0.00 | 0.00 | 30 | 1016.3 |
| 20260507012800 | 57 | 274 | 1.0 | 2.0 | 0.00 | 0.00 | 0.00 | 29 | 1016.3 |
| 20260507012224 | 57 | 274 | 1.0 | 3.0 | 0.00 | 0.00 | 0.00 | 29 | 1016.3 |
| 20260507011736 | 58 | 274 | 2.0 | 3.0 | 0.00 | 0.00 | 0.00 | 29 | 1016.3 |
| 20260507011506 | 58 | 274 | 0.0 | 4.0 | 0.00 | 0.00 | 0.00 | 29 | 1016.4 |
| 20260507011251 | 58 | 274 | 2.0 | 4.0 | 0.00 | 0.00 | 0.00 | 29 | 1016.3 |
| 20260507010733 | 59 | 274 | 2.0 | 4.0 | 0.00 | 0.00 | 0.00 | 28 | 1016.3 |
| 20260507010243 | 59 | 298 | 2.0 | 4.0 | 0.00 | 0.00 | 0.00 | 27 | 1016.3 |
| 20260507010010 | 59 | 298 | 0.0 | 4.0 | 0.00 | 0.00 | 0.00 | 27 | 1016.4 |
| 20260507005726 | 60 | 298 | 2.0 | 4.0 | 0.00 | 0.00 | 0.00 | 27 | 1016.3 |
| 20260507005238 | 60 | 309 | 2.0 | 5.0 | 0.00 | 0.00 | 0.00 | 27 | 1016.4 |
| 20260507004746 | 60 | 295 | 3.0 | 6.0 | 0.00 | 0.00 | 0.00 | 27 | 1016.4 |
| 20260507004556 | 59 | 299 | 3.0 | 10.0 | 0.00 | 0.00 | 0.00 | 27 | 1016.5 |
| 20260507004240 | 60 | 314 | 3.0 | 10.0 | 0.00 | 0.00 | 0.00 | 28 | 1016.4 |
| 20260507003750 | 60 | 302 | 7.0 | 10.0 | 0.00 | 0.00 | 0.00 | 27 | 1016.4 |
| 20260507003234 | 60 | 318 | 5.0 | 10.0 | 0.00 | 0.00 | 0.00 | 28 | 1016.4 |
| 20260507003057 | 60 | 295 | 4.0 | 11.0 | 0.00 | 0.00 | 0.00 | 28 | 1016.5 |
| 20260507002746 | 60 | 305 | 4.0 | 11.0 | 0.00 | 0.00 | 0.00 | 27 | 1016.4 |
| 20260507002227 | 60 | 351 | 7.0 | 11.0 | 0.00 | 0.00 | 0.00 | 26 | 1016.5 |
| 20260507001740 | 60 | 317 | 4.0 | 8.0 | 0.00 | 0.00 | 0.00 | 27 | 1016.5 |
| 20260507001554 | 60 | 316 | 5.0 | 8.0 | 0.00 | 0.00 | 0.00 | 27 | 1016.6 |
| 20260507001225 | 60 | 326 | 5.0 | 9.0 | 0.00 | 0.00 | 0.00 | 27 | 1016.5 |
| 20260507000731 | 60 | 282 | 5.0 | 10.0 | 0.00 | 0.00 | 0.00 | 27 | 1016.6 |
| 20260507000241 | 60 | 309 | 6.0 | 11.0 | 0.00 | 0.00 | 0.00 | 27 | 1016.7 |
| 20260507000037 | 60 | 271 | 6.0 | 11.0 | 0.00 | 0.00 | 0.00 | 27 | 1016.8 |
| 20260506235721 | 60 | 298 | 6.0 | 11.0 | 0.00 | 0.00 | 0.00 | 27 | 1016.7 |
| 20260506235234 | 60 | 296 | 7.0 | 12.0 | 0.00 | 0.00 | 0.00 | 27 | 1016.8 |
| 20260506234747 | 61 | 260 | 8.0 | 13.0 | 0.00 | 0.00 | 0.00 | 28 | 1016.8 |
| 20260506234546 | 60 | 279 | 8.0 | 13.0 | 0.00 | 0.00 | 0.00 | 27 | 1016.9 |
| 20260506234232 | 61 | 300 | 8.0 | 16.0 | 0.00 | 0.00 | 0.00 | 27 | 1016.9 |
| 20260506233740 | 61 | 260 | 9.0 | 16.0 | 0.00 | 0.00 | 0.00 | 26 | 1016.9 |
| 20260506233224 | 61 | 292 | 10.0 | 16.0 | 0.00 | 0.00 | 0.00 | 27 | 1016.9 |
| 20260506233046 | 61 | 309 | 10.0 | 16.0 | 0.00 | 0.00 | 0.00 | 27 | 1017.0 |
| 20260506232752 | 61 | 311 | 10.0 | 16.0 | 0.00 | 0.00 | 0.00 | 28 | 1016.8 |
| 20260506232243 | 61 | 360 | 3.0 | 11.0 | 0.00 | 0.00 | 0.00 | 27 | 1016.8 |
| 20260506231729 | 61 | 328 | 5.0 | 11.0 | 0.00 | 0.00 | 0.00 | 28 | 1016.9 |
| 20260506231538 | 61 | 286 | 6.0 | 11.0 | 0.00 | 0.00 | 0.00 | 28 | 1017.1 |
| 20260506231242 | 61 | 338 | 7.0 | 18.0 | 0.00 | 0.00 | 0.00 | 28 | 1017.0 |
| 20260506230725 | 61 | 300 | 11.0 | 19.0 | 0.00 | 0.00 | 0.00 | 29 | 1017.0 |
| 20260506230237 | 61 | 278 | 6.0 | 19.0 | 0.00 | 0.00 | 0.00 | 27 | 1017.0 |
| 20260506230041 | 60 | 281 | 11.0 | 19.0 | 0.00 | 0.00 | 0.00 | 27 | 1017.2 |
| 20260506225748 | 61 | 292 | 11.0 | 17.0 | 0.00 | 0.00 | 0.00 | 27 | 1017.0 |
| 20260506225228 | 62 | 292 | 13.0 | 17.0 | 0.00 | 0.00 | 0.00 | 28 | 1017.0 |
| 20260506224740 | 62 | 306 | 7.0 | 14.0 | 0.00 | 0.00 | 0.00 | 27 | 1017.0 |
| 20260506224556 | 62 | 283 | 7.0 | 15.0 | 0.00 | 0.00 | 0.00 | 29 | 1017.2 |
| 20260506224226 | 62 | 288 | 6.0 | 18.0 | 0.00 | 0.00 | 0.00 | 29 | 1017.1 |
| 20260506223758 | 62 | 306 | 10.0 | 18.0 | 0.00 | 0.00 | 0.00 | 28 | 1017.1 |
| 20260506223221 | 62 | 355 | 9.0 | 18.0 | 0.00 | 0.00 | 0.00 | 26 | 1017.1 |
| 20260506223029 | 62 | 336 | 11.0 | 20.0 | 0.00 | 0.00 | 0.00 | 28 | 1017.3 |
| 20260506222733 | 63 | 316 | 9.0 | 20.0 | 0.00 | 0.00 | 0.00 | 27 | 1017.2 |
| 20260506222246 | 62 | 305 | 11.0 | 20.0 | 0.00 | 0.00 | 0.00 | 26 | 1017.1 |
| 20260506221730 | 62 | 309 | 15.0 | 20.0 | 0.00 | 0.00 | 0.00 | 27 | 1017.2 |
| 20260506221531 | 61 | 296 | 9.0 | 20.0 | 0.00 | 0.00 | 0.00 | 28 | 1017.4 |
| 20260506221239 | 62 | 304 | 12.0 | 20.0 | 0.00 | 0.00 | 0.00 | 27 | 1017.3 |
| 20260506220749 | 63 | 313 | 13.0 | 20.0 | 0.00 | 0.00 | 0.00 | 27 | 1017.3 |
| 20260506220232 | 63 | 337 | 8.0 | 18.0 | 0.00 | 0.00 | 0.00 | 26 | 1017.3 |
| 20260506220041 | 63 | 281 | 9.0 | 18.0 | 0.00 | 0.00 | 0.00 | 28 | 1017.5 |
| 20260506215746 | 63 | 284 | 11.0 | 21.0 | 0.00 | 0.00 | 0.00 | 27 | 1017.4 |
| 20260506215235 | 63 | 299 | 11.0 | 21.0 | 0.00 | 0.00 | 0.00 | 28 | 1017.4 |
| 20260506214747 | 63 | 295 | 12.0 | 17.0 | 0.00 | 0.00 | 0.00 | 27 | 1017.4 |
| 20260506214523 | 62 | 303 | 5.0 | 19.0 | 0.00 | 0.00 | 0.00 | 32 | 1017.6 |
| 20260506214232 | 61 | 315 | 9.0 | 19.0 | 0.00 | 0.00 | 0.00 | 28 | 1017.5 |
| 20260506213738 | 61 | 292 | 13.0 | 23.0 | 0.00 | 0.00 | 0.00 | 27 | 1017.5 |
| 20260506213221 | 62 | 301 | 12.0 | 23.0 | 0.00 | 0.00 | 0.00 | 29 | 1017.6 |
| 20260506213033 | 62 | 315 | 9.0 | 16.0 | 0.00 | 0.00 | 0.00 | 30 | 1017.7 |
| 20260506212735 | 63 | 345 | 7.0 | 15.0 | 0.00 | 0.00 | 0.00 | 29 | 1017.6 |
| 20260506212247 | 62 | 283 | 8.0 | 17.0 | 0.00 | 0.00 | 0.00 | 29 | 1017.7 |
| 20260506211740 | 62 | 292 | 6.0 | 19.0 | 0.00 | 0.00 | 0.00 | 33 | 1017.7 |
| 20260506211513 | 61 | 294 | 12.0 | 23.0 | 0.00 | 0.00 | 0.00 | 30 | 1018.0 |
| 20260506211226 | 61 | 5 | 12.0 | 23.0 | 0.00 | 0.00 | 0.00 | 27 | 1017.7 |
| 20260506210736 | 63 | 344 | 12.0 | 23.0 | 0.00 | 0.00 | 0.00 | 29 | 1017.8 |
| 20260506210304 | 62 | 272 | 10.0 | 16.0 | 0.00 | 0.00 | 0.00 | 30 | 1017.8 |
| 20260506210053 | 62 | 266 | 7.0 | 16.0 | 0.00 | 0.00 | 0.00 | 28 | 1018.1 |
| 20260506205726 | 62 | 298 | 6.0 | 21.0 | 0.00 | 0.00 | 0.00 | 31 | 1018.1 |
| 20260506205239 | 62 | 255 | 11.0 | 21.0 | 0.00 | 0.00 | 0.00 | 29 | 1018.2 |
| 20260506204809 | 62 | 306 | 10.0 | 19.0 | 0.00 | 0.00 | 0.00 | 30 | 1018.1 |
| 20260506204531 | 62 | 281 | 8.0 | 19.0 | 0.00 | 0.00 | 0.00 | 32 | 1018.2 |
| 20260506204232 | 62 | 292 | 8.0 | 15.0 | 0.00 | 0.00 | 0.00 | 32 | 1018.3 |
| 20260506203743 | 62 | 328 | 5.0 | 22.0 | 0.00 | 0.00 | 0.00 | 28 | 1018.3 |
| 20260506203227 | 62 | 292 | 13.0 | 22.0 | 0.00 | 0.00 | 0.00 | 29 | 1018.4 |
| 20260506203037 | 62 | 281 | 14.0 | 22.0 | 0.00 | 0.00 | 0.00 | 28 | 1018.4 |
| 20260506202736 | 62 | 304 | 13.0 | 20.0 | 0.00 | 0.00 | 0.00 | 31 | 1018.5 |
| 20260506202243 | 61 | 299 | 8.0 | 22.0 | 0.00 | 0.00 | 0.00 | 29 | 1018.5 |
| 20260506201724 | 63 | 275 | 10.0 | 22.0 | 0.00 | 0.00 | 0.00 | 30 | 1018.5 |
| 20260506201543 | 62 | 306 | 15.0 | 22.0 | 0.00 | 0.00 | 0.00 | 31 | 1018.7 |
| 20260506201237 | 62 | 291 | 12.0 | 20.0 | 0.00 | 0.00 | 0.00 | 31 | 1018.6 |
| 20260506200806 | 61 | 332 | 12.0 | 18.0 | 0.00 | 0.00 | 0.00 | 29 | 1018.6 |
| 20260506200227 | 63 | 335 | 7.0 | 19.0 | 0.00 | 0.00 | 0.00 | 34 | 1018.6 |
| 20260506200019 | 61 | 344 | 8.0 | 19.0 | 0.00 | 0.00 | 0.00 | 37 | 1018.8 |
| 20260506195801 | 60 | 321 | 7.0 | 19.0 | 0.00 | 0.00 | 0.00 | 35 | 1018.6 |
| 20260506195225 | 60 | 279 | 9.0 | 17.0 | 0.00 | 0.00 | 0.00 | 35 | 1018.7 |
| 20260506194732 | 60 | 333 | 10.0 | 20.0 | 0.00 | 0.00 | 0.00 | 31 | 1018.8 |
| 20260506194505 | 59 | 302 | 9.0 | 20.0 | 0.00 | 0.00 | 0.00 | 32 | 1018.9 |
| 20260506194245 | 61 | 293 | 11.0 | 20.0 | 0.00 | 0.00 | 0.00 | 31 | 1018.8 |
| 20260506193729 | 60 | 305 | 13.0 | 21.0 | 0.00 | 0.00 | 0.00 | 34 | 1018.8 |
| 20260506193300 | 60 | 346 | 12.0 | 21.0 | 0.00 | 0.00 | 0.00 | 31 | 1018.8 |
| 20260506193040 | 60 | 315 | 13.0 | 21.0 | 0.00 | 0.00 | 0.00 | 32 | 1019.0 |
| 20260506192723 | 60 | 271 | 8.0 | 18.0 | 0.00 | 0.00 | 0.00 | 34 | 1018.7 |
| 20260506192236 | 62 | 289 | 10.0 | 20.0 | 0.00 | 0.00 | 0.00 | 32 | 1018.8 |
| 20260506191749 | 62 | 312 | 13.0 | 20.0 | 0.00 | 0.00 | 0.00 | 31 | 1018.8 |
| 20260506191551 | 61 | 286 | 15.0 | 20.0 | 0.00 | 0.00 | 0.00 | 32 | 1018.9 |
| 20260506191231 | 60 | 311 | 10.0 | 23.0 | 0.00 | 0.00 | 0.00 | 33 | 1018.7 |
| 20260506190744 | 62 | 278 | 12.0 | 25.0 | 0.00 | 0.00 | 0.00 | 30 | 1018.8 |
| 20260506190235 | 61 | 267 | 16.0 | 25.0 | 0.00 | 0.00 | 0.00 | 32 | 1018.8 |
| 20260506190033 | 61 | 287 | 14.0 | 24.0 | 0.00 | 0.00 | 0.00 | 33 | 1019.0 |
| 20260506185745 | 61 | 248 | 15.0 | 24.0 | 0.00 | 0.00 | 0.00 | 33 | 1018.8 |
| 20260506185227 | 59 | 316 | 14.0 | 21.0 | 0.00 | 0.00 | 0.00 | 31 | 1018.9 |
| 20260506184740 | 58 | 340 | 14.0 | 21.0 | 0.00 | 0.00 | 0.00 | 32 | 1019.0 |
| 20260506184535 | 58 | 5 | 11.0 | 18.0 | 0.00 | 0.00 | 0.00 | 33 | 1019.2 |
| 20260506184225 | 59 | 316 | 10.0 | 18.0 | 0.00 | 0.00 | 0.00 | 32 | 1019.2 |
| 20260506183734 | 59 | 321 | 8.0 | 17.0 | 0.00 | 0.00 | 0.00 | 36 | 1019.2 |
| 20260506183239 | 58 | 288 | 7.0 | 20.0 | 0.00 | 0.00 | 0.00 | 34 | 1019.3 |
| 20260506183044 | 58 | 336 | 7.0 | 20.0 | 0.00 | 0.00 | 0.00 | 33 | 1019.4 |
| 20260506182750 | 59 | 323 | 9.0 | 20.0 | 0.00 | 0.00 | 0.00 | 35 | 1019.3 |
| 20260506182231 | 60 | 345 | 10.0 | 15.0 | 0.00 | 0.00 | 0.00 | 34 | 1019.3 |
| 20260506181743 | 60 | 317 | 5.0 | 18.0 | 0.00 | 0.00 | 0.00 | 39 | 1019.3 |
| 20260506181547 | 58 | 355 | 7.0 | 18.0 | 0.00 | 0.00 | 0.00 | 39 | 1019.6 |
| 20260506181228 | 59 | 355 | 12.0 | 18.0 | 0.00 | 0.00 | 0.00 | 32 | 1019.4 |
| 20260506180800 | 61 | 344 | 12.0 | 18.0 | 0.00 | 0.00 | 0.00 | 34 | 1019.4 |
| 20260506180250 | 60 | 331 | 9.0 | 14.0 | 0.00 | 0.00 | 0.00 | 39 | 1019.3 |
| 20260506180045 | 60 | 250 | 8.0 | 17.0 | 0.00 | 0.00 | 0.00 | 33 | 1019.6 |
| 20260506175739 | 61 | 297 | 7.0 | 18.0 | 0.00 | 0.00 | 0.00 | 38 | 1019.5 |
| 20260506175249 | 60 | 284 | 12.0 | 22.0 | 0.00 | 0.00 | 0.00 | 34 | 1019.7 |
| 20260506174732 | 60 | 288 | 13.0 | 22.0 | 0.00 | 0.00 | 0.00 | 35 | 1019.6 |
| 20260506174549 | 59 | 265 | 9.0 | 18.0 | 0.00 | 0.00 | 0.00 | 37 | 1019.9 |
| 20260506174306 | 59 | 249 | 9.0 | 21.0 | 0.00 | 0.00 | 0.00 | 37 | 1019.7 |
| 20260506173727 | 60 | 251 | 14.0 | 21.0 | 0.00 | 0.00 | 0.00 | 33 | 1019.8 |
| 20260506173259 | 59 | 330 | 13.0 | 25.0 | 0.00 | 0.00 | 0.00 | 35 | 1019.9 |
| 20260506173002 | 59 | 296 | 14.0 | 25.0 | 0.00 | 0.00 | 0.00 | 34 | 1020.1 |
| 20260506172745 | 60 | 298 | 13.0 | 25.0 | 0.00 | 0.00 | 0.00 | 33 | 1019.9 |
| 20260506172226 | 59 | 282 | 13.0 | 20.0 | 0.00 | 0.00 | 0.00 | 35 | 1019.9 |
| 20260506171739 | 59 | 322 | 7.0 | 15.0 | 0.00 | 0.00 | 0.00 | 38 | 1020.1 |
| 20260506171508 | 58 | 309 | 10.0 | 15.0 | 0.00 | 0.00 | 0.00 | 39 | 1020.3 |
| 20260506171254 | 56 | 338 | 6.0 | 11.0 | 0.00 | 0.00 | 0.00 | 42 | 1020.2 |
| 20260506170745 | 56 | 265 | 7.0 | 14.0 | 0.00 | 0.00 | 0.00 | 38 | 1020.2 |
| 20260506170228 | 57 | 292 | 7.0 | 19.0 | 0.00 | 0.00 | 0.00 | 37 | 1020.2 |
| 20260506170048 | 57 | 347 | 7.0 | 19.0 | 0.00 | 0.00 | 0.00 | 43 | 1020.3 |
| 20260506165739 | 57 | 329 | 7.0 | 19.0 | 0.00 | 0.00 | 0.00 | 36 | 1020.2 |
| 20260506165221 | 58 | 333 | 13.0 | 19.0 | 0.00 | 0.00 | 0.00 | 38 | 1020.2 |
| 20260506164728 | 57 | 315 | 9.0 | 18.0 | 0.00 | 0.00 | 0.00 | 37 | 1020.3 |
| 20260506164559 | 56 | 328 | 8.0 | 19.0 | 0.00 | 0.00 | 0.00 | 39 | 1020.4 |
| 20260506164242 | 56 | 312 | 11.0 | 20.0 | 0.00 | 0.00 | 0.00 | 38 | 1020.4 |
| 20260506163723 | 57 | 320 | 15.0 | 20.0 | 0.00 | 0.00 | 0.00 | 35 | 1020.3 |
| 20260506163237 | 57 | 288 | 13.0 | 19.0 | 0.00 | 0.00 | 0.00 | 37 | 1020.3 |
| 20260506163008 | 56 | 360 | 8.0 | 17.0 | 0.00 | 0.00 | 0.00 | 38 | 1020.5 |
| 20260506162747 | 56 | 348 | 9.0 | 20.0 | 0.00 | 0.00 | 0.00 | 36 | 1020.3 |
| 20260506162232 | 56 | 253 | 9.0 | 20.0 | 0.00 | 0.00 | 0.00 | 38 | 1020.4 |
| 20260506161743 | 57 | 293 | 10.0 | 18.0 | 0.00 | 0.00 | 0.00 | 38 | 1020.4 |
| 20260506161511 | 56 | 294 | 12.0 | 18.0 | 0.00 | 0.00 | 0.00 | 39 | 1020.5 |
| 20260506161226 | 56 | 314 | 11.0 | 18.0 | 0.00 | 0.00 | 0.00 | 38 | 1020.3 |
| 20260506160732 | 55 | 253 | 9.0 | 17.0 | 0.00 | 0.00 | 0.00 | 39 | 1020.3 |
| 20260506160246 | 55 | 306 | 11.0 | 16.0 | 0.00 | 0.00 | 0.00 | 37 | 1020.2 |
| 20260506160015 | 55 | 285 | 9.0 | 16.0 | 0.00 | 0.00 | 0.00 | 39 | 1020.5 |
| 20260506155730 | 55 | 355 | 9.0 | 16.0 | 0.00 | 0.00 | 0.00 | 38 | 1020.4 |
| 20260506155244 | 55 | 309 | 9.0 | 13.0 | 0.00 | 0.00 | 0.00 | 39 | 1020.2 |
| 20260506154726 | 54 | 323 | 4.0 | 26.0 | 0.00 | 0.00 | 0.00 | 37 | 1020.2 |
| 20260506154512 | 54 | 288 | 8.0 | 26.0 | 0.00 | 0.00 | 0.00 | 39 | 1020.3 |
| 20260506154300 | 55 | 293 | 10.0 | 26.0 | 0.00 | 0.00 | 0.00 | 37 | 1020.2 |
| 20260506153723 | 56 | 325 | 7.0 | 15.0 | 0.00 | 0.00 | 0.00 | 37 | 1020.2 |
| 20260506153230 | 55 | 307 | 6.0 | 15.0 | 0.00 | 0.00 | 0.00 | 40 | 1020.2 |
| 20260506153053 | 55 | 302 | 9.0 | 19.0 | 0.00 | 0.00 | 0.00 | 37 | 1020.4 |
| 20260506152743 | 56 | 348 | 9.0 | 19.0 | 0.00 | 0.00 | 0.00 | 39 | 1020.1 |
| 20260506152227 | 56 | 290 | 9.0 | 15.0 | 0.00 | 0.00 | 0.00 | 39 | 1020.1 |
| 20260506151758 | 56 | 295 | 8.0 | 14.0 | 0.00 | 0.00 | 0.00 | 40 | 1020.0 |
| 20260506151538 | 55 | 336 | 9.0 | 14.0 | 0.00 | 0.00 | 0.00 | 40 | 1020.3 |
| 20260506151311 | 56 | 315 | 3.0 | 13.0 | 0.00 | 0.00 | 0.00 | 41 | 1020.1 |
| 20260506150731 | 55 | 303 | 8.0 | 13.0 | 0.00 | 0.00 | 0.00 | 39 | 1020.1 |
| 20260506150241 | 54 | 336 | 5.0 | 13.0 | 0.00 | 0.00 | 0.00 | 41 | 1020.2 |
| 20260506150016 | 53 | 336 | 3.0 | 13.0 | 0.00 | 0.00 | 0.00 | 44 | 1020.4 |
| 20260506145747 | 54 | 324 | 8.0 | 13.0 | 0.00 | 0.00 | 0.00 | 43 | 1020.2 |
| 20260506145237 | 53 | 323 | 5.0 | 11.0 | 0.00 | 0.00 | 0.00 | 44 | 1020.3 |
| 20260506144721 | 54 | 313 | 7.0 | 10.0 | 0.00 | 0.00 | 0.00 | 45 | 1020.2 |
| 20260506144504 | 53 | 329 | 4.0 | 10.0 | 0.00 | 0.00 | 0.00 | 42 | 1020.5 |
| 20260506144236 | 53 | 355 | 5.0 | 10.0 | 0.00 | 0.00 | 0.00 | 43 | 1020.2 |
| 20260506143745 | 54 | 355 | 4.0 | 10.0 | 0.00 | 0.00 | 0.00 | 45 | 1020.3 |
| 20260506143255 | 53 | 340 | 6.0 | 8.0 | 0.00 | 0.00 | 0.00 | 44 | 1020.2 |
| 20260506143033 | 52 | 336 | 4.0 | 8.0 | 0.00 | 0.00 | 0.00 | 47 | 1020.4 |
| 20260506142743 | 53 | 329 | 4.0 | 12.0 | 0.00 | 0.00 | 0.00 | 43 | 1020.2 |
| 20260506142226 | 52 | 323 | 7.0 | 12.0 | 0.00 | 0.00 | 0.00 | 44 | 1020.2 |
| 20260506141738 | 51 | 347 | 5.0 | 10.0 | 0.00 | 0.00 | 0.00 | 43 | 1020.1 |
| 20260506141532 | 51 | 5 | 6.0 | 10.0 | 0.00 | 0.00 | 0.00 | 44 | 1020.4 |
| 20260506141312 | 52 | 328 | 5.0 | 10.0 | 0.00 | 0.00 | 0.00 | 43 | 1020.2 |
| 20260506140733 | 51 | 342 | 6.0 | 10.0 | 0.00 | 0.00 | 0.00 | 44 | 1020.1 |
| 20260506140244 | 52 | 314 | 3.0 | 10.0 | 0.00 | 0.00 | 0.00 | 50 | 1020.1 |
| 20260506140018 | 50 | 316 | 4.0 | 10.0 | 0.00 | 0.00 | 0.00 | 51 | 1020.3 |
| 20260506135726 | 50 | 360 | 6.0 | 10.0 | 0.00 | 0.00 | 0.00 | 47 | 1020.0 |
| 20260506135238 | 50 | 355 | 7.0 | 10.0 | 0.00 | 0.00 | 0.00 | 47 | 1019.8 |
| 20260506134746 | 49 | 5 | 6.0 | 10.0 | 0.00 | 0.00 | 0.00 | 48 | 1019.8 |
| 20260506134514 | 49 | 5 | 8.0 | 10.0 | 0.00 | 0.00 | 0.00 | 48 | 1020.1 |
| 20260506134230 | 49 | 22 | 6.0 | 10.0 | 0.00 | 0.00 | 0.00 | 48 | 1019.7 |
| 20260506133740 | 49 | 5 | 6.0 | 9.0 | 0.00 | 0.00 | 0.00 | 48 | 1019.7 |
| 20260506133223 | 49 | 342 | 3.0 | 8.0 | 0.00 | 0.00 | 0.00 | 52 | 1019.7 |
| 20260506133006 | 48 | 355 | 2.0 | 8.0 | 0.00 | 0.00 | 0.00 | 53 | 1020.0 |
| 20260506132732 | 48 | 321 | 4.0 | 8.0 | 0.00 | 0.00 | 0.00 | 54 | 1019.7 |
| 20260506132242 | 48 | 5 | 5.0 | 8.0 | 0.00 | 0.00 | 0.00 | 51 | 1019.6 |
| 20260506131723 | 48 | 298 | 4.0 | 9.0 | 0.00 | 0.00 | 0.00 | 53 | 1019.6 |
| 20260506131548 | 47 | 360 | 4.0 | 9.0 | 0.00 | 0.00 | 0.00 | 55 | 1019.8 |
| 20260506131233 | 47 | 343 | 5.0 | 9.0 | 0.00 | 0.00 | 0.00 | 52 | 1019.5 |
| 20260506130744 | 47 | 350 | 4.0 | 8.0 | 0.00 | 0.00 | 0.00 | 54 | 1019.4 |
| 20260506130228 | 46 | 321 | 3.0 | 9.0 | 0.00 | 0.00 | 0.00 | 57 | 1019.4 |
| 20260506130050 | 45 | 324 | 5.0 | 9.0 | 0.00 | 0.00 | 0.00 | 56 | 1019.6 |
| 20260506125739 | 45 | 325 | 6.0 | 9.0 | 0.00 | 0.00 | 0.00 | 55 | 1019.3 |
| 20260506125222 | 45 | 310 | 6.0 | 9.0 | 0.00 | 0.00 | 0.00 | 56 | 1019.4 |
| 20260506124754 | 44 | 315 | 5.0 | 9.0 | 0.00 | 0.00 | 0.00 | 58 | 1019.3 |
| 20260506124534 | 44 | 321 | 4.0 | 6.0 | 0.00 | 0.00 | 0.00 | 59 | 1019.5 |
| 20260506124246 | 44 | 320 | 3.0 | 8.0 | 0.00 | 0.00 | 0.00 | 59 | 1019.1 |
| 20260506123728 | 43 | 329 | 4.0 | 8.0 | 0.00 | 0.00 | 0.00 | 59 | 1019.0 |
| 20260506123256 | 43 | 302 | 4.0 | 8.0 | 0.00 | 0.00 | 0.00 | 59 | 1018.9 |
| 20260506123006 | 42 | 309 | 3.0 | 8.0 | 0.00 | 0.00 | 0.00 | 59 | 1019.1 |
| 20260506122748 | 43 | 313 | 5.0 | 8.0 | 0.00 | 0.00 | 0.00 | 59 | 1018.9 |
| 20260506122227 | 42 | 323 | 3.0 | 5.0 | 0.00 | 0.00 | 0.00 | 60 | 1018.8 |
| 20260506121737 | 42 | 323 | 2.0 | 4.0 | 0.00 | 0.00 | 0.00 | 59 | 1018.6 |
| 20260506121556 | 41 | 323 | 2.0 | 4.0 | 0.00 | 0.00 | 0.00 | 59 | 1018.8 |
| 20260506121249 | 41 | 323 | 3.0 | 4.0 | 0.00 | 0.00 | 0.00 | 59 | 1018.6 |
| 20260506120730 | 41 | 323 | 2.0 | 4.0 | 0.00 | 0.00 | 0.00 | 59 | 1018.5 |
| 20260506120243 | 41 | 348 | 2.0 | 4.0 | 0.00 | 0.00 | 0.00 | 59 | 1018.5 |
| 20260506120039 | 40 | 347 | 2.0 | 4.0 | 0.00 | 0.00 | 0.00 | 59 | 1018.7 |
| 20260506115730 | 40 | 348 | 3.0 | 6.0 | 0.00 | 0.00 | 0.00 | 59 | 1018.4 |
| 20260506115240 | 40 | 330 | 3.0 | 6.0 | 0.00 | 0.00 | 0.00 | 58 | 1018.4 |
| 20260506114725 | 40 | 317 | 4.0 | 5.0 | 0.00 | 0.00 | 0.00 | 58 | 1018.3 |
| 20260506114540 | 40 | 327 | 3.0 | 5.0 | 0.00 | 0.00 | 0.00 | 58 | 1018.4 |
| 20260506114239 | 41 | 330 | 3.0 | 5.0 | 0.00 | 0.00 | 0.00 | 58 | 1018.1 |
| 20260506113749 | 41 | 325 | 4.0 | 5.0 | 0.00 | 0.00 | 0.00 | 58 | 1018.1 |
| 20260506113242 | 41 | 318 | 3.0 | 5.0 | 0.00 | 0.00 | 0.00 | 58 | 1018.1 |
| 20260506113022 | 40 | 319 | 3.0 | 5.0 | 0.00 | 0.00 | 0.00 | 58 | 1018.3 |
| 20260506112724 | 41 | 315 | 3.0 | 5.0 | 0.00 | 0.00 | 0.00 | 58 | 1018.2 |
| 20260506112231 | 41 | 317 | 3.0 | 5.0 | 0.00 | 0.00 | 0.00 | 57 | 1018.1 |
| 20260506111742 | 41 | 325 | 3.0 | 4.0 | 0.00 | 0.00 | 0.00 | 57 | 1018.1 |
| 20260506111528 | 41 | 314 | 2.0 | 4.0 | 0.00 | 0.00 | 0.00 | 57 | 1018.3 |
| 20260506111254 | 41 | 311 | 3.0 | 4.0 | 0.00 | 0.00 | 0.00 | 57 | 1018.1 |
| 20260506110723 | 41 | 315 | 3.0 | 5.0 | 0.00 | 0.00 | 0.00 | 57 | 1018.0 |
| 20260506110234 | 41 | 315 | 3.0 | 5.0 | 0.00 | 0.00 | 0.00 | 56 | 1017.9 |
| 20260506110052 | 41 | 315 | 3.0 | 5.0 | 0.00 | 0.00 | 0.00 | 56 | 1018.1 |
| 20260506105745 | 42 | 318 | 3.0 | 5.0 | 0.00 | 0.00 | 0.00 | 56 | 1018.0 |
| 20260506105226 | 42 | 315 | 3.0 | 5.0 | 0.00 | 0.00 | 0.00 | 55 | 1018.0 |
| 20260506104734 | 42 | 316 | 4.0 | 5.0 | 0.00 | 0.00 | 0.00 | 54 | 1018.0 |
| 20260506104600 | 41 | 326 | 3.0 | 4.0 | 0.00 | 0.00 | 0.00 | 54 | 1018.2 |
| 20260506104248 | 42 | 330 | 3.0 | 4.0 | 0.00 | 0.00 | 0.00 | 54 | 1018.0 |
| 20260506103730 | 42 | 328 | 3.0 | 4.0 | 0.00 | 0.00 | 0.00 | 53 | 1018.0 |
| 20260506103240 | 42 | 321 | 3.0 | 6.0 | 0.00 | 0.00 | 0.00 | 53 | 1017.9 |
| 20260506103058 | 42 | 327 | 3.0 | 6.0 | 0.00 | 0.00 | 0.00 | 53 | 1018.1 |
| 20260506102724 | 42 | 319 | 4.0 | 6.0 | 0.00 | 0.00 | 0.00 | 53 | 1017.9 |
| 20260506102235 | 42 | 329 | 5.0 | 6.0 | 0.00 | 0.00 | 0.00 | 53 | 1017.9 |
| 20260506101745 | 42 | 327 | 4.0 | 6.0 | 0.00 | 0.00 | 0.00 | 53 | 1017.9 |
| 20260506101558 | 42 | 317 | 4.0 | 6.0 | 0.00 | 0.00 | 0.00 | 53 | 1017.9 |
| 20260506101229 | 43 | 319 | 4.0 | 6.0 | 0.00 | 0.00 | 0.00 | 52 | 1017.8 |
| 20260506100735 | 43 | 323 | 4.0 | 6.0 | 0.00 | 0.00 | 0.00 | 52 | 1017.7 |
| 20260506100245 | 43 | 325 | 4.0 | 6.0 | 0.00 | 0.00 | 0.00 | 52 | 1017.7 |
| 20260506100100 | 42 | 327 | 4.0 | 7.0 | 0.00 | 0.00 | 0.00 | 52 | 1017.9 |
| 20260506095728 | 43 | 325 | 4.0 | 5.0 | 0.00 | 0.00 | 0.00 | 51 | 1017.7 |
| 20260506095300 | 43 | 317 | 4.0 | 5.0 | 0.00 | 0.00 | 0.00 | 51 | 1017.6 |
| 20260506094749 | 43 | 332 | 4.0 | 5.0 | 0.00 | 0.00 | 0.00 | 50 | 1017.6 |
| 20260506094536 | 43 | 332 | 3.0 | 5.0 | 0.00 | 0.00 | 0.00 | 50 | 1017.7 |
| 20260506094234 | 44 | 339 | 3.0 | 5.0 | 0.00 | 0.00 | 0.00 | 50 | 1017.5 |
| 20260506093744 | 44 | 336 | 4.0 | 6.0 | 0.00 | 0.00 | 0.00 | 50 | 1017.5 |
| 20260506093310 | 44 | 329 | 4.0 | 6.0 | 0.00 | 0.00 | 0.00 | 49 | 1017.5 |
| 20260506093047 | 43 | 317 | 3.0 | 5.0 | 0.00 | 0.00 | 0.00 | 49 | 1017.7 |
| 20260506092732 | 44 | 324 | 4.0 | 5.0 | 0.00 | 0.00 | 0.00 | 49 | 1017.4 |
| 20260506092306 | 44 | 327 | 3.0 | 4.0 | 0.00 | 0.00 | 0.00 | 49 | 1017.4 |
| 20260506091725 | 44 | 329 | 3.0 | 4.0 | 0.00 | 0.00 | 0.00 | 49 | 1017.3 |
| 20260506091527 | 44 | 333 | 3.0 | 4.0 | 0.00 | 0.00 | 0.00 | 49 | 1017.4 |
| 20260506091237 | 44 | 336 | 2.0 | 5.0 | 0.00 | 0.00 | 0.00 | 49 | 1017.3 |
| 20260506090748 | 44 | 336 | 3.0 | 6.0 | 0.00 | 0.01 | 0.00 | 49 | 1017.3 |
| 20260506090231 | 45 | 340 | 3.0 | 8.0 | 0.00 | 0.01 | 0.00 | 48 | 1017.3 |
| 20260506090031 | 44 | 344 | 4.0 | 8.0 | 0.00 | 0.01 | 0.00 | 48 | 1017.4 |
| 20260506085738 | 45 | 351 | 4.0 | 8.0 | 0.00 | 0.01 | 0.00 | 48 | 1017.2 |
| 20260506085249 | 45 | 336 | 4.0 | 6.0 | 0.00 | 0.01 | 0.00 | 48 | 1017.2 |
| 20260506084739 | 45 | 345 | 3.0 | 5.0 | 0.00 | 0.01 | 0.00 | 48 | 1017.2 |
| 20260506084511 | 44 | 341 | 3.0 | 5.0 | 0.00 | 0.01 | 0.00 | 48 | 1017.3 |
| 20260506084310 | 45 | 348 | 3.0 | 5.0 | 0.00 | 0.01 | 0.00 | 48 | 1017.1 |
| 20260506083730 | 45 | 344 | 3.0 | 5.0 | 0.00 | 0.01 | 0.00 | 48 | 1017.0 |
| 20260506083242 | 45 | 338 | 3.0 | 5.0 | 0.00 | 0.01 | 0.00 | 48 | 1017.0 |
| 20260506083050 | 45 | 342 | 3.0 | 5.0 | 0.00 | 0.01 | 0.00 | 48 | 1017.2 |
| 20260506082723 | 45 | 333 | 3.0 | 5.0 | 0.00 | 0.01 | 0.00 | 48 | 1016.9 |
| 20260506082250 | 45 | 348 | 4.0 | 5.0 | 0.00 | 0.01 | 0.00 | 47 | 1016.9 |
| 20260506081741 | 45 | 341 | 4.0 | 5.0 | 0.00 | 0.01 | 0.00 | 47 | 1016.9 |
| 20260506081527 | 45 | 344 | 3.0 | 5.0 | 0.00 | 0.01 | 0.00 | 47 | 1017.0 |
| 20260506081254 | 45 | 343 | 3.0 | 5.0 | 0.00 | 0.01 | 0.00 | 47 | 1016.9 |
| 20260506080740 | 45 | 335 | 3.0 | 6.0 | 0.00 | 0.01 | 0.00 | 47 | 1016.9 |
| 20260506080222 | 46 | 336 | 3.0 | 5.0 | 0.00 | 0.01 | 0.00 | 46 | 1016.8 |
| 20260506073239 | 46 | 360 | 4.0 | 6.0 | 0.00 | 0.01 | 0.00 | 45 | 1016.5 |
| 20260506073023 | 46 | 350 | 3.0 | 5.0 | 0.00 | 0.01 | 0.00 | 45 | 1016.7 |
| 20260506072749 | 46 | 355 | 4.0 | 5.0 | 0.00 | 0.01 | 0.00 | 45 | 1016.6 |
| 20260506072240 | 47 | 348 | 4.0 | 6.0 | 0.00 | 0.01 | 0.00 | 45 | 1016.6 |
| 20260506071747 | 47 | 348 | 4.0 | 6.0 | 0.00 | 0.01 | 0.00 | 45 | 1016.6 |
| 20260506071505 | 46 | 355 | 4.0 | 6.0 | 0.00 | 0.01 | 0.00 | 45 | 1016.7 |
| 20260506071233 | 47 | 5 | 4.0 | 9.0 | 0.00 | 0.01 | 0.00 | 45 | 1016.6 |
| 20260506070743 | 47 | 355 | 4.0 | 9.0 | 0.00 | 0.01 | 0.00 | 45 | 1016.7 |
| 20260506070226 | 47 | 360 | 5.0 | 6.0 | 0.00 | 0.01 | 0.00 | 44 | 1016.6 |
| 20260506062230 | 48 | 355 | 4.0 | 8.0 | 0.00 | 0.01 | 0.00 | 43 | 1016.7 |
| 20260506061742 | 48 | 5 | 6.0 | 9.0 | 0.00 | 0.01 | 0.00 | 42 | 1016.6 |
| 20260506061535 | 47 | 5 | 4.0 | 9.0 | 0.00 | 0.01 | 0.00 | 42 | 1016.7 |
| 20260506061228 | 48 | 339 | 5.0 | 9.0 | 0.00 | 0.01 | 0.00 | 42 | 1016.7 |
| 20260506060740 | 48 | 329 | 5.0 | 9.0 | 0.00 | 0.01 | 0.00 | 42 | 1016.6 |
| 20260506060222 | 48 | 343 | 6.0 | 10.0 | 0.00 | 0.01 | 0.00 | 41 | 1016.5 |
| 20260506051240 | 49 | 355 | 6.0 | 12.0 | 0.00 | 0.01 | 0.00 | 40 | 1016.1 |
| 20260506050749 | 49 | 351 | 7.0 | 12.0 | 0.00 | 0.01 | 0.01 | 41 | 1015.9 |
| 20260506050233 | 49 | 328 | 7.0 | 11.0 | 0.00 | 0.01 | 0.01 | 41 | 1015.9 |
| 20260506050107 | 49 | 346 | 6.0 | 11.0 | 0.00 | 0.01 | 0.01 | 40 | 1016.0 |
| 20260506044733 | 50 | 344 | 6.0 | 10.0 | 0.00 | 0.01 | 0.01 | 40 | 1015.8 |
| 20260506044510 | 49 | 355 | 5.0 | 10.0 | 0.00 | 0.01 | 0.01 | 40 | 1015.7 |
| 20260506044242 | 50 | 355 | 6.0 | 10.0 | 0.00 | 0.01 | 0.01 | 40 | 1015.6 |
| 20260506043724 | 50 | 355 | 6.0 | 9.0 | 0.00 | 0.01 | 0.01 | 40 | 1015.7 |
| 20260506043235 | 50 | 344 | 8.0 | 11.0 | 0.00 | 0.01 | 0.01 | 40 | 1015.7 |
| 20260506043016 | 49 | 360 | 6.0 | 11.0 | 0.00 | 0.01 | 0.01 | 40 | 1015.7 |
| 20260506042748 | 50 | 360 | 8.0 | 11.0 | 0.00 | 0.01 | 0.01 | 40 | 1015.7 |
| 20260506042232 | 50 | 350 | 7.0 | 10.0 | 0.00 | 0.01 | 0.01 | 40 | 1015.6 |
| 20260506041744 | 50 | 348 | 5.0 | 9.0 | 0.00 | 0.01 | 0.01 | 40 | 1015.6 |
| 20260506041516 | 50 | 343 | 5.0 | 9.0 | 0.00 | 0.01 | 0.01 | 41 | 1015.6 |
| 20260506041229 | 50 | 347 | 6.0 | 9.0 | 0.00 | 0.01 | 0.01 | 40 | 1015.5 |
| 20260506040740 | 50 | 360 | 5.0 | 9.0 | 0.00 | 0.01 | 0.01 | 40 | 1015.4 |
| 20260506040247 | 50 | 342 | 5.0 | 9.0 | 0.00 | 0.01 | 0.01 | 40 | 1015.4 |
| 20260506040033 | 50 | 351 | 5.0 | 10.0 | 0.00 | 0.01 | 0.01 | 40 | 1015.4 |
| 20260506035731 | 51 | 355 | 5.0 | 10.0 | 0.00 | 0.01 | 0.01 | 40 | 1015.4 |
| 20260506035306 | 51 | 348 | 6.0 | 10.0 | 0.00 | 0.01 | 0.01 | 39 | 1015.4 |
| 20260506034725 | 51 | 333 | 7.0 | 10.0 | 0.00 | 0.01 | 0.01 | 39 | 1015.5 |
| 20260506034556 | 50 | 360 | 6.0 | 11.0 | 0.00 | 0.01 | 0.01 | 39 | 1015.5 |
| 20260506034237 | 51 | 350 | 6.0 | 11.0 | 0.00 | 0.01 | 0.01 | 39 | 1015.5 |
| 20260506033746 | 51 | 344 | 6.0 | 11.0 | 0.00 | 0.01 | 0.01 | 39 | 1015.4 |
| 20260506033230 | 51 | 345 | 7.0 | 11.0 | 0.00 | 0.01 | 0.01 | 38 | 1015.4 |
| 20260506033058 | 51 | 348 | 6.0 | 11.0 | 0.00 | 0.01 | 0.01 | 38 | 1015.4 |
| 20260506032737 | 51 | 345 | 7.0 | 10.0 | 0.00 | 0.01 | 0.01 | 38 | 1015.3 |
| 20260506032249 | 51 | 5 | 7.0 | 10.0 | 0.00 | 0.01 | 0.01 | 38 | 1015.3 |
| 20260506031738 | 51 | 343 | 7.0 | 10.0 | 0.00 | 0.01 | 0.01 | 38 | 1015.3 |
| 20260506031546 | 51 | 348 | 7.0 | 10.0 | 0.00 | 0.01 | 0.01 | 38 | 1015.2 |
| 20260506031224 | 52 | 360 | 7.0 | 11.0 | 0.00 | 0.01 | 0.01 | 38 | 1015.2 |
| 20260506030736 | 52 | 327 | 7.0 | 14.0 | 0.00 | 0.01 | 0.01 | 37 | 1015.2 |
| 20260506030248 | 52 | 5 | 10.0 | 14.0 | 0.00 | 0.01 | 0.01 | 37 | 1015.1 |
| 20260506030057 | 51 | 342 | 8.0 | 16.0 | 0.00 | 0.01 | 0.01 | 37 | 1015.1 |
| 20260506025732 | 52 | 355 | 8.0 | 16.0 | 0.00 | 0.01 | 0.01 | 37 | 1015.0 |
| 20260506025243 | 52 | 351 | 12.0 | 16.0 | 0.00 | 0.01 | 0.01 | 36 | 1014.9 |
| 20260506024721 | 52 | 355 | 12.0 | 16.0 | 0.00 | 0.01 | 0.01 | 36 | 1014.7 |
| 20260506024552 | 51 | 335 | 9.0 | 14.0 | 0.00 | 0.01 | 0.01 | 37 | 1014.7 |
| 20260506024254 | 52 | 345 | 8.0 | 14.0 | 0.00 | 0.01 | 0.01 | 37 | 1014.7 |
| 20260506023744 | 52 | 9 | 9.0 | 15.0 | 0.00 | 0.01 | 0.01 | 37 | 1014.7 |
| 20260506023230 | 52 | 336 | 10.0 | 15.0 | 0.00 | 0.01 | 0.01 | 37 | 1014.6 |
| 20260506023042 | 52 | 355 | 9.0 | 15.0 | 0.00 | 0.01 | 0.01 | 37 | 1014.6 |
| 20260506022744 | 52 | 345 | 9.0 | 15.0 | 0.00 | 0.01 | 0.01 | 37 | 1014.5 |
| 20260506022229 | 52 | 329 | 9.0 | 15.0 | 0.00 | 0.01 | 0.01 | 37 | 1014.4 |
| 20260506021739 | 52 | 14 | 10.0 | 15.0 | 0.00 | 0.01 | 0.01 | 37 | 1014.3 |
| 20260506021536 | 52 | 342 | 10.0 | 16.0 | 0.00 | 0.01 | 0.01 | 37 | 1014.3 |
| 20260506021247 | 53 | 5 | 11.0 | 16.0 | 0.00 | 0.01 | 0.01 | 37 | 1014.3 |
| 20260506020729 | 53 | 355 | 11.0 | 17.0 | 0.00 | 0.01 | 0.01 | 37 | 1014.3 |